When you browse on this site, cookies collect data to enhance your experience and personalize the content and advertising you see.
Visit our Privacy Policy to learn more. By continuing to use the site, you agree to this use of cookies and data.
  • In United Kingdom
  • List of Countries
  • For 7 days
  • Water Temperature
  • Weather Map
  • Weather Widgets
  • user-avatar
    Login

    Hourly Weather Covasna

    Today, 22 January, Wednesday

    Time Temperature Precipitation Wind Pressure Humidity
    00:00 -6°C° 0 mm 2 mps 714 mmHg 88%
    01:00 -6°C° 0 mm 2 mps 714 mmHg 88%
    02:00 -6°C° 0 mm 2 mps 713 mmHg 88%
    03:00 -6°C° 0 mm 2 mps 713 mmHg 88%
    04:00 -6°C° 0 mm 2 mps 712 mmHg 87%
    05:00 -6°C° 0 mm 2 mps 711 mmHg 86%
    06:00 -6°C° 0 mm 2 mps 711 mmHg 85%
    07:00 -6°C° 0 mm 2 mps 711 mmHg 83%
    08:00 -6°C° 0 mm 2 mps 710 mmHg 81%
    09:00 -4°C° 0 mm 2 mps 710 mmHg 77%
    10:00 -4°C° 0 mm 3 mps 710 mmHg 73%
    11:00 -2°C° 0 mm 3 mps 709 mmHg 69%
    12:00 -2°C° 0 mm 3 mps 708 mmHg 68%
    13:00 -1°C° 0 mm 3 mps 707 mmHg 66%
    14:00 -2°C° 0 mm 4 mps 707 mmHg 65%
    15:00 -2°C° 0 mm 3 mps 706 mmHg 69%
    16:00 -4°C° 0 mm 3 mps 705 mmHg 72%
    17:00 -5°C° 0 mm 3 mps 705 mmHg 76%
    18:00 -5°C° 0 mm 3 mps 705 mmHg 79%
    19:00 -6°C° 0 mm 3 mps 705 mmHg 82%
    20:00 -6°C° 0 mm 3 mps 705 mmHg 85%
    21:00 -6°C° 0.1 mm 3 mps 705 mmHg 86%
    22:00 -7°C° 0.1 mm 4 mps 705 mmHg 88%
    23:00 -7°C° 0.1 mm 4 mps 705 mmHg 89%

    Tomorrow, 23 January, Thursday

    Time Temperature Precipitation Wind Pressure Humidity
    00:00 -7°C° 0.2 mm 4 mps 706 mmHg 90%
    01:00 -6°C° 0.2 mm 3 mps 706 mmHg 90%
    02:00 -6°C° 0.2 mm 3 mps 707 mmHg 90%
    03:00 -7°C° 0.1 mm 4 mps 707 mmHg 90%
    04:00 -7°C° 0.1 mm 4 mps 707 mmHg 90%
    05:00 -7°C° 0.1 mm 4 mps 708 mmHg 90%
    06:00 -7°C° 0.1 mm 4 mps 708 mmHg 90%
    07:00 -7°C° 0.1 mm 5 mps 709 mmHg 90%
    08:00 -7°C° 0.1 mm 5 mps 710 mmHg 90%
    09:00 -6°C° 0.1 mm 5 mps 710 mmHg 87%
    10:00 -6°C° 0.1 mm 5 mps 710 mmHg 84%
    11:00 -5°C° 0.1 mm 5 mps 711 mmHg 80%
    12:00 -5°C° 0 mm 5 mps 711 mmHg 79%
    13:00 -4°C° 0 mm 4 mps 711 mmHg 77%
    14:00 -3°C° 0 mm 4 mps 711 mmHg 75%
    15:00 -4°C° 0 mm 4 mps 711 mmHg 79%
    16:00 -5°C° 0 mm 3 mps 711 mmHg 82%
    17:00 -5°C° 0 mm 3 mps 712 mmHg 86%
    18:00 -6°C° 0 mm 3 mps 712 mmHg 87%
    19:00 -5°C° 0 mm 2 mps 712 mmHg 87%
    20:00 -5°C° 0 mm 2 mps 712 mmHg 88%
    21:00 -5°C° 0 mm 2 mps 713 mmHg 88%
    22:00 -5°C° 0 mm 2 mps 713 mmHg 89%
    23:00 -4°C° 0 mm 1 mps 713 mmHg 89%

    Day after tomorrow, 24 January, Friday

    Time Temperature Precipitation Wind Pressure Humidity
    00:00 -4°C° 0 mm 1 mps 713 mmHg 89%
    01:00 -4°C° 0 mm 1 mps 713 mmHg 89%
    02:00 -6°C° 0 mm 1 mps 713 mmHg 88%
    03:00 -6°C° 0 mm 1 mps 713 mmHg 87%
    04:00 -6°C° 0 mm 1 mps 712 mmHg 86%
    05:00 -6°C° 0 mm 1 mps 712 mmHg 84%
    06:00 -6°C° 0 mm 1 mps 712 mmHg 82%
    07:00 -6°C° 0 mm 1 mps 712 mmHg 80%
    08:00 -6°C° 0 mm 1 mps 712 mmHg 78%
    09:00 -3°C° 0 mm 1 mps 712 mmHg 70%
    10:00 -1°C° 0 mm 1 mps 712 mmHg 63%
    11:00 +1°C° 0 mm 1 mps 712 mmHg 55%
    12:00 +2°C° 0 mm 1 mps 712 mmHg 53%
    13:00 +3°C° 0 mm 1 mps 711 mmHg 51%
    14:00 +4°C° 0 mm 1 mps 711 mmHg 50%
    15:00 +2°C° 0 mm 1 mps 710 mmHg 52%
    16:00 +1°C° 0 mm 1 mps 710 mmHg 55%
    17:00 0°C° 0 mm 1 mps 709 mmHg 58%
    18:00 -1°C° 0 mm 1 mps 709 mmHg 54%
    19:00 -1°C° 0 mm 1 mps 709 mmHg 49%
    20:00 -1°C° 0 mm 1 mps 709 mmHg 45%
    21:00 -1°C° 0 mm 1 mps 709 mmHg 43%
    22:00 -1°C° 0 mm 1 mps 708 mmHg 41%
    23:00 -1°C° 0 mm 1 mps 708 mmHg 40%

    25 January, Saturday

    Time Temperature Precipitation Wind Pressure Humidity
    00:00 -1°C° 0 mm 1 mps 707 mmHg 38%
    01:00 -1°C° 0 mm 1 mps 707 mmHg 37%
    02:00 -1°C° 0 mm 1 mps 706 mmHg 35%
    03:00 -1°C° 0 mm 1 mps 706 mmHg 36%
    04:00 -1°C° 0 mm 1 mps 706 mmHg 37%
    05:00 -1°C° 0 mm 1 mps 706 mmHg 37%
    06:00 -3°C° 0 mm 2 mps 706 mmHg 42%
    07:00 -3°C° 0 mm 2 mps 706 mmHg 47%
    08:00 -3°C° 0 mm 2 mps 706 mmHg 51%
    09:00 -1°C° 0 mm 2 mps 706 mmHg 53%
    10:00 +1°C° 0 mm 2 mps 707 mmHg 54%
    11:00 +3°C° 0 mm 2 mps 707 mmHg 56%
    12:00 +3°C° 0 mm 2 mps 707 mmHg 57%
    13:00 +4°C° 0 mm 2 mps 707 mmHg 58%
    14:00 +4°C° 0 mm 2 mps 707 mmHg 59%
    15:00 +3°C° 0 mm 2 mps 707 mmHg 64%
    16:00 +2°C° 0 mm 2 mps 706 mmHg 69%
    17:00 +1°C° 0 mm 2 mps 706 mmHg 73%
    18:00 +1°C° 0 mm 2 mps 706 mmHg 76%
    19:00 +2°C° 0 mm 1 mps 707 mmHg 79%
    20:00 +1°C° 0 mm 1 mps 707 mmHg 82%
    21:00 +1°C° 0 mm 1 mps 707 mmHg 84%
    22:00 +1°C° 0 mm 1 mps 707 mmHg 85%
    23:00 +1°C° 0 mm 1 mps 707 mmHg 86%

    26 January, Sunday

    Time Temperature Precipitation Wind Pressure Humidity
    00:00 +1°C° 0 mm 1 mps 707 mmHg 87%
    01:00 +1°C° 0 mm 1 mps 707 mmHg 87%
    02:00 +1°C° 0 mm 1 mps 707 mmHg 88%
    03:00 +1°C° 0 mm 1 mps 707 mmHg 88%
    04:00 +1°C° 0 mm 1 mps 707 mmHg 89%
    05:00 +2°C° 0 mm 1 mps 707 mmHg 89%
    06:00 +2°C° 0 mm 1 mps 707 mmHg 90%
    07:00 +2°C° 0 mm 1 mps 707 mmHg 91%
    08:00 +2°C° 0 mm 1 mps 708 mmHg 91%
    09:00 +3°C° 0 mm 1 mps 708 mmHg 88%
    10:00 +5°C° 0 mm 1 mps 708 mmHg 86%
    11:00 +6°C° 0 mm 1 mps 709 mmHg 83%
    12:00 +6°C° 0 mm 1 mps 708 mmHg 82%
    13:00 +7°C° 0 mm 1 mps 708 mmHg 81%
    14:00 +6°C° 0 mm 0 mps 708 mmHg 80%
    15:00 +5°C° 0 mm 0 mps 708 mmHg 83%
    16:00 +4°C° 0 mm 0 mps 708 mmHg 86%
    17:00 +3°C° 0 mm 0 mps 707 mmHg 89%
    18:00 +3°C° 0 mm 1 mps 707 mmHg 89%
    19:00 +3°C° 0 mm 1 mps 707 mmHg 89%
    20:00 +3°C° 0 mm 1 mps 707 mmHg 88%
    21:00 +3°C° 0 mm 1 mps 707 mmHg 88%
    22:00 +3°C° 0 mm 1 mps 707 mmHg 87%
    23:00 +3°C° 0 mm 1 mps 707 mmHg 87%

    27 January, Monday

    Time Temperature Precipitation Wind Pressure Humidity
    00:00 +3°C° 0 mm 1 mps 707 mmHg 87%
    01:00 +3°C° 0 mm 1 mps 707 mmHg 87%
    02:00 +2°C° 0 mm 1 mps 707 mmHg 86%
    03:00 +3°C° 0 mm 1 mps 707 mmHg 85%
    04:00 +3°C° 0 mm 1 mps 706 mmHg 84%
    05:00 +3°C° 0 mm 1 mps 706 mmHg 83%
    06:00 +3°C° 0 mm 1 mps 706 mmHg 82%
    07:00 +2°C° 0 mm 0 mps 706 mmHg 81%
    08:00 +2°C° 0 mm 0 mps 707 mmHg 80%
    09:00 +3°C° 0 mm 0 mps 707 mmHg 78%
    10:00 +4°C° 0 mm 0 mps 707 mmHg 77%
    11:00 +4°C° 0 mm 0 mps 707 mmHg 75%
    12:00 +4°C° 0 mm 0 mps 707 mmHg 76%
    13:00 +6°C° 0 mm 1 mps 707 mmHg 77%
    14:00 +6°C° 0 mm 1 mps 706 mmHg 78%
    15:00 +5°C° 0 mm 1 mps 706 mmHg 83%
    16:00 +4°C° 0 mm 1 mps 706 mmHg 87%
    17:00 +3°C° 0 mm 1 mps 706 mmHg 92%
    18:00 +3°C° 0 mm 1 mps 706 mmHg 93%
    19:00 +3°C° 0 mm 1 mps 706 mmHg 94%
    20:00 +3°C° 0 mm 1 mps 707 mmHg 95%
    21:00 +3°C° 0 mm 1 mps 707 mmHg 96%
    22:00 +3°C° 0 mm 1 mps 707 mmHg 96%
    23:00 +3°C° 0 mm 1 mps 708 mmHg 97%
    Show more